Starlink 32751

operational
NORAD ID: 62753 Int'l Des: 2025-014 Owner: SPXS Country: US Constellation: starlink
LEOCIRCULAR

About Starlink 32751

Description loading...

Live Position

Loading 3D Globe...

Upcoming Passes

Altitude History

Altitude vs Time

uPlot chart will show altitude changes over time

Two-Line Element Set

1 62753U 25014U 25303.70088619 .00036026 00000-0 13115-2 0 9997
2 62753 42.9995 168.8079 0001200 289.6663 70.4059 15.27600630 43377
Epoch: Oct 30, 2025 • Age: 27 hours

Current Status

Altitude 486.3 km
Velocity 7.63 km/s
Sub-Earth Point 41.21°N, 66.4°W
Launch Date Jan 21, 2025
Age 0.7 years
Type internet

Technical Details

Classification Payload
Mass 730.00 kg
Dry Mass 700.00 kg
Total Mass 730.00 kg
Length 0.30 m
Diameter 4.10 m
Span 29.00 m
Shape Box + pan
Manufacturer SPXS
Bus Type Starlink V2M
Phase Status In Orbit
Owner/State SPXS/US

Large Constellations

Loading constellations...